This is the latest recevied weather packets stored in our database for station/object KW4UJ. If no packets are shown the sender has not sent any weather packets the latest 10 day(s).
| Time | Temp. | Humidity | Pressure | Rain* | Wind** | Luminosity | Snow |
|---|---|---|---|---|---|---|---|
| 1788283198 | 33.89° C | 58% | 1015.9 hPa | 0 mm | - | 282 W/m² | - |
| 1788282897 | 33.89° C | 59% | 1015.8 hPa | 0 mm | - | 266 W/m² | - |
| 1788282595 | 33.89° C | 58% | 1015.8 hPa | 0 mm | - | 369 W/m² | - |
| 1788282291 | 33.89° C | 60% | 1015.9 hPa | 0 mm | - | 281 W/m² | - |
| 1788281990 | 33.89° C | 58% | 1016 hPa | 0 mm | - | 763 W/m² | - |
| 1788281685 | 33.33° C | 59% | 1016.1 hPa | 0 mm | - | 624 W/m² | - |
| 1788281381 | 33.33° C | 59% | 1016.3 hPa | 0 mm | - | 520 W/m² | - |
| 1788281076 | 33.33° C | 59% | 1016.2 hPa | 0 mm | - | 526 W/m² | - |
| 1788280771 | 33.33° C | 58% | 1016.2 hPa | 0 mm | - | 565 W/m² | - |
| 1788280466 | 32.78° C | 61% | 1016.2 hPa | 0 mm | - | 550 W/m² | - |
| 1788280165 | 32.78° C | 61% | 1016.2 hPa | 0 mm | - | 226 W/m² | - |
| 1788279860 | 32.78° C | 61% | 1016.3 hPa | 0 mm | - | 286 W/m² | - |
| 1788279560 | 33.89° C | 59% | 1016.2 hPa | 0 mm | - | 272 W/m² | - |
| 1788279259 | 33.33° C | 60% | 1016.2 hPa | 0 mm | - | 314 W/m² | - |
| 1788278954 | 32.78° C | 60% | 1016.4 hPa | 0 mm | - | 215 W/m² | - |
| 1788278650 | 32.78° C | 61% | 1016.5 hPa | 0 mm | - | 142 W/m² | - |
| 1788278350 | 32.78° C | 60% | 1016.4 hPa | 0 mm | - | 121 W/m² | - |
| 1788278050 | 32.78° C | 62% | 1016.5 hPa | 0 mm | - | 118 W/m² | - |
| 1788277747 | 32.22° C | 63% | 1016.5 hPa | 0 mm | - | 108 W/m² | - |
| 1788277446 | 32.22° C | 64% | 1016.6 hPa | 0 mm | - | 101 W/m² | - |
| 1788277141 | 32.22° C | 63% | 1016.7 hPa | 0 mm | - | 96 W/m² | - |
| 1788276840 | 32.22° C | 63% | 1016.8 hPa | 0 mm | - | 97 W/m² | - |
| 1788276540 | 32.22° C | 63% | 1016.9 hPa | 0 mm | - | 95 W/m² | - |
| 1788276235 | 31.67° C | 63% | 1017 hPa | 0 mm | - | 96 W/m² | - |
| 1788275930 | 31.67° C | 64% | 1017 hPa | 0 mm | - | 93 W/m² | - |
* Rain latest hour (hover to see other rain measurements)
** Current wind speed in m/s (hover to see current wind gust speed)